Terminal Aerodrome Forecast
Issued by NWS

Home | Current Version | Previous Version | Text Only | Print | Product List | Glossary On
Versions: 1 2 3 4 5 6 7 8 9 10 11 12 13 14 15 16
000
FTUS45 KVEF 202200 AAA
TAFBIH
TAF AMD
KBIH 202206Z 2022/2118 12017G25KT P6SM SCT100 SCT250
     FM210300 16009KT P6SM BKN250
     FM210700 33005KT P6SM BKN250=

USA.gov is the U.S. government's official web portal to all federal, state and local government web resources and services.